Tracking 29528 objects as of 13-Sep-2024
HD Live streaming from Space Station
objects crossing your sky now

STARLINK-3672

Track STARLINK-3672 now!
10-day predictions
STARLINK-3672 is classified as:


NORAD ID: 51974
Int'l Code: 2022-025U
Perigee: 553.3 km
Apogee: 555.4 km
Inclination: 53.1 °
Period: 95.6 minutes
Semi major axis: 6925 km
RCS: Unknown
Launch date: March 9, 2022
Source: United States (US)
Launch site: AIR FORCE EASTERN TEST RANGE (AFETR)
Your satellite tracking list
Your tracking list is empty




NASA's NSSDC Master Catalog

Two Line Element Set (TLE):
1 51974U 22025U   24256.43470360  .00002423  00000-0  18145-3 0  9996
2 51974  53.0546 309.6516 0001541  91.4926 268.6240 15.06405875139038
Source of the keplerian elements: AFSPC